Lid_Strength_Index
1 1 1 1 1 2 2 2 2 2 2 2 2 3 4 5 5 7 9 5 5 2 2 5 8 8 7 6 8 9 12 13 12 12 11 10 9 9 8 8 7 6 7 5 4
1 1 1 1 1 1 1 1 2 2 2 2 2 2 3 4 8 8 5 3 3 3 5 7 9 8 10 7 9 12 13 12 10 10 10 11 10 11 9 9 9 8 5 5 4
1 1 1 1 1 1 1 1 1 2 2 2 2 2 2 5 9 9 4 4 4 5 5 5 6 8 10 7 9 13 13 10 10 10 10 11 11 10 10 10 8 8 7 6 5
1 1 1 1 1 1 1 1 1 1 1 2 2 2 2 8 18 8 4 5 4 7 8 7 9 11 11 10 8 13 12 10 10 9 10 10 10 11 9 9 9 8 5 6 5
1 1 1 1 1 1 1 1 1 1 1 2 2 2 7 14 14 7 4 6 8 8 10 9 11 12 13 11 9 11 11 10 10 9 10 9 10 11 11 9 5 7 5 6 5
1 1 1 1 1 1 1 1 1 1 2 2 3 3 9 17 9 7 7 7 8 9 10 9 11 10 12 13 11 10 9 10 10 10 9 10 11 10 10 8 7 6 6 7 6
2 1 1 1 1 2 1 1 1 1 2 2 3 6 10 14 7 7 7 8 8 9 10 8 10 11 11 13 13 11 11 10 9 9 10 10 12 12 10 7 8 7 6 5 6
2 1 1 1 1 1 1 1 1 2 1 2 2 7 14 8 7 6 7 8 7 7 8 8 7 9 11 11 13 13 13 15 12 9 9 11 13 10 9 10 7 7 6 6 5
1 1 1 1 0 -1 -1 -0 0 0 1 1 6 9 13 6 8 8 9 9 9 8 7 7 8 10 11 15 16 14 18 16 14 10 9 11 14 9 9 11 11 8 7 6 5
1 1 1 0 -0 -1 -1 -1 -1 1 2 2 4 11 9 11 9 8 9 9 11 10 10 9 10 12 13 15 20 18 16 16 15 12 11 13 12 10 10 11 11 11 10 6 6
1 1 0 -0 -1 -0 2 5 7 9 6 9 9 9 8 7 7 9 8 10 11 12 16 13 14 16 14 12 13 15 17 18 15 12 12 12 12 11 9 12 13 12 11 11 6
1 1 0 -0 -0 0 4 6 6 5 9 6 6 7 5 6 10 8 7 12 13 16 14 16 18 14 12 12 12 13 16 18 16 12 12 14 13 11 10 9 11 10 11 11 10
0 0 0 0 1 4 5 5 2 3 10 8 6 6 5 5 8 8 8 10 15 16 16 18 17 13 14 14 14 13 15 15 16 15 14 15 15 14 11 10 11 10 10 10 11
-0 0 0 1 6 7 7 3 2 5 20 13 8 6 5 5 9 4 5 9 12 15 16 17 15 15 16 16 14 16 12 13 14 15 18 14 20 15 12 12 10 10 10 10 10
-0 0 1 3 8 8 5 3 4 7 26 11 9 3 6 8 8 8 4 8 11 12 13 17 15 15 17 16 13 15 11 13 13 15 16 16 17 18 13 13 12 10 9 9 8
0 1 2 5 6 6 4 5 8 19 26 16 9 9 9 9 8 6 7 6 7 11 11 13 11 12 13 13 13 12 13 13 13 14 19 17 16 20 16 14 12 10 9 8 9
1 2 4 5 8 5 6 10 20 24 15 16 15 10 10 11 10 9 9 11 12 17 20 14 14 12 10 14 13 14 16 19 20 20 22 16 17 17 15 14 12 11 10 9 10
1 3 4 5 6 7 10 17 26 25 23 11 10 10 14 12 11 11 11 14 12 12 15 19 20 14 11 13 15 13 16 18 22 21 21 16 19 17 13 12 14 14 13 12 14
3 8 8 7 6 9 15 25 23 21 12 11 11 17 21 14 13 13 15 16 12 10 14 17 17 10 11 11 11 15 15 13 16 17 21 18 16 15 15 15 14 13 14 14 13
9 10 9 6 8 12 19 20 22 13 11 10 15 15 24 22 16 17 18 14 12 9 8 12 16 11 10 9 9 12 11 16 16 21 23 19 19 18 16 15 14 13 13 12 12
10 15 8 6 10 16 24 24 20 12 11 11 13 15 16 18 18 22 19 15 9 9 8 10 13 13 11 14 13 13 14 13 14 15 20 22 20 17 15 14 13 12 12 12 11
14 19 9 9 18 21 24 22 12 12 11 12 11 10 12 13 19 17 19 14 8 8 12 10 12 16 16 11 9 10 12 12 16 18 16 16 18 15 15 15 12 12 12 12 12
17 18 9 11 24 26 17 17 13 14 12 14 13 10 11 12 16 14 13 9 8 10 15 13 16 19 18 13 11 13 12 11 12 13 17 19 18 13 12 13 13 13 13 13 13
17 21 18 18 22 21 21 24 20 12 13 11 13 12 12 12 11 17 12 10 9 9 7 9 13 15 20 19 14 15 14 12 13 16 16 16 15 14 13 13 13 13 14 14 14
15 21 22 24 22 21 19 18 18 18 15 12 13 13 15 19 14 14 12 11 10 9 9 13 17 18 14 13 14 13 13 13 14 14 16 15 14 13 13 13 12 12 13 13 14
17 18 15 19 17 17 17 21 17 16 16 18 16 13 14 17 14 14 12 12 12 11 12 12 18 16 18 13 12 14 14 13 13 13 14 15 16 11 12 12 13 13 13 14 14
15 14 15 19 18 21 23 20 17 15 14 14 14 14 14 13 12 11 10 10 10 12 12 13 14 18 19 14 14 19 15 16 15 13 13 16 12 11 12 11 12 13 12 13 14